Preview of NWS' New Version of Forecast
This preview is not operational and should not be used for support decisions.

Regional Weather Roundup (RWR)

Issued by National Weather Service (NWS)

                            
000
ASUS43 KDMX 220001
RWRIA 

WEATHER ROUNDUP FOR IOWA
NATIONAL WEATHER SERVICE DES MOINES IA
700 PM CDT SUN APR 21 2019

NOTE: "FAIR" INDICATES FEW OR NO CLOUDS BELOW 12,000 FEET WITH NO
SIGNIFICANT WEATHER AND/OR OBSTRUCTIONS TO VISIBILITY.

* - THESE STATIONS ARE NOT NWS STATIONS...THUS NOT UNDER NWS
QUALITY CONTROL.  THEY ALSO DO NOT REPORT WEATHER SUCH 
AS PRECIPITATION OR FOG.  

IAZ001>003-012>014-020>022-031>034-043>046-220100-
   NORTHWEST IOWA
  
CITY           SKY/WX    TMP DP  RH WIND       PRES   REMARKS
CARROLL *      CLOUDY    86  48  26 S22G30    29.71R HX  83           
CHEROKEE *     CLOUDY    76  51  42 NE6       29.70S                  
DENISON *      CLOUDY    82  48  30 S18G30    29.71R HX  81           
LE MARS *      MOSUNNY   75  50  41 NE12      29.69S                  
SHELDON *      MOSUNNY   75  52  43 N7        29.71S                  
SIOUX CITY     MOSUNNY   77  52  41 N14       29.65F                  
6HR MIN TEMP:  75; 6HR MAX TEMP:  81;                                

SPENCER        MOSUNNY   74  56  53 E6        29.74S                  
6HR MIN TEMP:  74; 6HR MAX TEMP:  83; 6HR PCP: TRACE;                

STORM LAKE *   CLOUDY    79  50  36 SE12      29.69R                  
$$
 
IAZ055>058-069>071-079>083-090>094-220100-
   SOUTHWEST IOWA
  
CITY           SKY/WX    TMP DP  RH WIND       PRES   REMARKS
ATLANTIC *     MOSUNNY   82  48  30 S20G29    29.69S HX  81           
AUDUBON *      MOSUNNY   81  45  28 CALM      29.73R                  
CLARINDA *     PTSUNNY   81  46  30 S18G29    29.74R HX  80           
COUNCIL BLFS * MOSUNNY   81  50  34 S23G30    29.67R HX  80           
CRESTON *      CLOUDY    81  46  30 S21G30    29.75R HX  80           
HARLAN  *      CLOUDY    81  48  32 S20       29.69S HX  80           
LAMONI         SUNNY     80  45  28 S15G29    29.78                   
6HR MIN TEMP:  77; 6HR MAX TEMP:  84;                                

RED OAK *      SUNNY     82  48  30 S29G38    29.69S HX  81           
SHENANDOAH *   MOSUNNY   82  48  30 S29G38    29.67F HX  81           
$$
 
IAZ047>049-059>061-072>074-084-220100-
   CENTRAL IOWA
  
CITY           SKY/WX    TMP DP  RH WIND       PRES   REMARKS
AMES           CLOUDY    77  50  38 SE14      29.77R                  
6HR MIN TEMP:  76; 6HR MAX TEMP:  84;                                

ANKENY *       CLOUDY    79  48  34 SE12G18   29.77R                  
BOONE *        CLOUDY    79  50  36 SE13      29.75R                  
CHARITON *     MOSUNNY   81  45  28 S18G30    29.78R                  
DES MOINES     CLOUDY    79  48  33 SE16      29.75S                  
6HR MIN TEMP:  78; 6HR MAX TEMP:  84;                                

GRINNELL*      CLOUDY    76  44  31 S15G23    29.82R                  
KNOXVILLE *    MOCLDY    77  46  33 SE12G18   29.78S                  
MARSHALLTOWN   CLOUDY    76  49  38 SE13      29.79R                  
6HR MIN TEMP:  76; 6HR MAX TEMP:  84;                                

NEWTON *       PTCLDY    75  46  35 SE14G22   29.79R                  
PELLA *        CLOUDY    77  42  28 SE13      29.81R                  
PERRY *        FAIR      80  45  28 SE16G22   29.73R                  
$$
 
IAZ004>006-015-016-023>025-035-036-220100-
   NORTH CENTRAL IOWA
  
CITY           SKY/WX    TMP DP  RH WIND       PRES   REMARKS
ALGONA *       CLOUDY    75  52  43 S12       29.75F                  
CLARION *      PTSUNNY   77  48  36 S14       29.79R                  
ESTHERVILLE    CLOUDY    72  52  49 S8        29.75R                  
6HR MIN TEMP:  72; 6HR MAX TEMP:  83;                                

FORT DODGE *   CLOUDY    77  50  38 SE10      29.76S                  
MASON CITY     CLOUDY    76  51  41 S13       29.80R                  
6HR MIN TEMP:  74; 6HR MAX TEMP:  86;                                

FOREST CITY *  FAIR      73  50  43 S9        29.79S                  
IOWA FALLS *   FAIR      76  47  35 SE22      29.79F                  
$$

IAZ007>011-017>019-026>030-037>042-050>054-066-220100-
   NORTHEAST IOWA
  
CITY           SKY/WX    TMP DP  RH WIND       PRES   REMARKS
CEDAR RAPIDS   FAIR      76  47  35 S15       29.83R                  
6HR MIN TEMP:  76; 6HR MAX TEMP:  84;                                

CHARLES CITY * FAIR      77  48  36 S13G21    29.80R                  
CLINTON *      FAIR      76  46  34 S15       29.91R                  
DECORAH *      FAIR      79  46  31 S10       29.81R                  
DUBUQUE        FAIR      76  45  33 S18G30    29.88R                  
6HR MIN TEMP:  76; 6HR MAX TEMP:  81;                                

MONTICELLO *   FAIR      77  45  31 S13G18    29.86R                  
OELWEIN *      FAIR      77  48  36 S17       29.83R                  
WATERLOO       FAIR      79  47  32 S13       29.81R                  
6HR MIN TEMP:  79; 6HR MAX TEMP:  86;                                

$$
 
IAZ064-065-067-068-078-220100-
   EAST CENTRAL IOWA
  
CITY           SKY/WX    TMP DP  RH WIND       PRES   REMARKS
DAVENPORT      FAIR      77  41  27 S14       29.91R                  
6HR MIN TEMP:  77; 6HR MAX TEMP:  84;                                

IOWA CITY      FAIR      77  47  34 SE12      29.86S                  
6HR MIN TEMP:  77; 6HR MAX TEMP:  84;                                

MT. PLEASANT * MOCLDY    75  48  38 S15       29.87S                  
MUSCATINE *    FAIR      77  45  31 SE14      29.88R                  
QUAD CITIES    FAIR      78  43  28 S13G20    29.89R                  
6HR MIN TEMP:  78; 6HR MAX TEMP:  84;                                

$$
 
IAZ062-063-075>077-085>089-095>099-220100-
   SOUTHEAST IOWA
  
CITY           SKY/WX    TMP DP  RH WIND       PRES   REMARKS
BURLINGTON     MOCLDY    74  46  36 S10       29.89S                  
6HR MIN TEMP:  74; 6HR MAX TEMP:  81;                                

FAIRFIELD *    CLOUDY    77  45  31 SE12G20   29.85S                  
FORT MADISON * PTCLDY    75  48  38 SE10G17   29.90S                  
KEOKUK *       CLOUDY    75  46  35 SE12      29.88S                  
OSKALOOSA *    FAIR      77  42  28 SE18      29.82S                  
CENTERVILLE *  FAIR      77  45  31 SE16      29.83S                  
OTTUMWA        MOCLDY    78  46  32 SE18G28   29.82F                  
6HR MIN TEMP:  77; 6HR MAX TEMP:  86;                                

WASHINGTON *   CLOUDY    79  45  29 S18G26    29.86S                  
$$

ABBREVIATIONS USED IN REMARKS
   TC - TEMPERATURES IN CELSIUS
  WCI - WIND CHILL INDEX
   HX - HEAT INDEX
  VSB - VISIBILITY  
$$